{"data":{"norad_id":49737,"intl_designator":"2021-115P","name":"STARLINK-3225","alt_names":[],"object_type":"PAYLOAD","status":"ACTIVE","operator":null,"country":"US","launch_date":"2021-12-02","launch_site_code":"AFETR","launch_vehicle":null,"mission":null,"orbit_class":"UNKNOWN","rcs_meters":null,"size_class":null,"mass_kg":null,"dimensions":null,"purposes":["comms"],"wikipedia_slug":null,"has_3d_model":false,"image_url":null,"decayed_at":null,"tle_current":{"epoch":"2026-05-24T10:48:07.570368Z","epoch_age_seconds":122333,"freshness":"FRESH","line1":"1 49737U 21115P   26144.45008762  .00000388  00000+0  42482-4 0  9991","line2":"2 49737  53.2158 169.0180 0001046  72.0552 288.0554 15.08838207246975","mean_motion":15.08838207,"eccentricity":0.0001046,"inclination_deg":53.2158,"raan_deg":169.018,"arg_perigee_deg":72.0552,"mean_anomaly_deg":288.0554,"bstar":4.2482e-5,"rev_number":24697,"period_min":95.43766808922,"perigee_km":539.02525859129,"apogee_km":540.47248031517,"semimajor_km":6917.8858694532,"source":"CELESTRAK","updated_at":"2026-05-25T13:38:16.833670Z"}}}